1489251600.94,36192,9.56,73118.8,-12.23,-46.27,-46.41,0,*6D
1489251602.23,36193,9.56,73118.3,-12.23,-46.61,-46.49,0,*66
1489251603.52,36194,9.56,73120.5,-12.23,-46.49,-46.61,0,*61
1489251604.81,36195,9.56,73120.0,-12.23,-46.61,-46.69,0,*62
1489251606.1,36196,9.56,73120.3,-12.23,-46.61,-46.49,0,*63
1489251607.38,36197,9.56,73118.5,-12.23,-46.61,-46.69,0,*60
1489251608.67,36198,9.56,73120.3,-12.23,-46.61,-46.61,0,*67
1489251609.93,36199,9.56,73120.0,-12.23,-46.83,-46.69,0,*62
1489251611.2,36200,9.56,73120.5,-12.23,-46.83,-46.89,0,*6F
1489251612.45,36201,9.56,73114.8,-12.23,-46.83,-46.83,0,*64
1489251613.67,36202,9.56,73116.8,-12.29,-46.75,-46.75,0,*6D
1489251614.88,36203,9.56,73120.5,-12.29,-46.75,-46.75,0,*6C
1489251616.18,36204,9.56,73118.8,-12.27,-46.89,-46.89,0,*65
1489251617.43,36205,9.56,73118.3,-12.29,-46.89,-46.75,0,*69
1489251618.67,36206,9.56,73120.5,-12.29,-46.69,-46.75,0,*64
1489251619.88,36207,9.56,73120.5,-12.29,-46.75,-46.75,0,*68
1489251621.16,36208,9.56,73122.0,-12.29,-46.89,-46.89,0,*67
1489251622.37,36209,9.56,73122.0,-12.29,-46.75,-46.75,0,*66
1489251623.62,36210,9.56,73124.5,-12.29,-46.89,-46.75,0,*6D
1489251624.91,36211,9.56,73120.0,-12.31,-47.03,-47.03,0,*66
1489251626.18,36212,9.56,73120.3,-12.29,-46.89,-46.89,0,*6C
1489251627.45,36213,9.56,73122.8,-12.31,-46.97,-47.03,0,*68
1489251628.67,36214,9.56,73120.8,-12.33,-46.83,-46.97,0,*64
1489251629.93,36215,9.56,73120.3,-12.31,-47.17,-47.03,0,*67
1489251631.17,36216,9.56,73124.0,-12.33,-47.03,-46.97,0,*6F
1489251632.39,36217,9.56,73122.0,-12.33,-46.83,-46.97,0,*67
1489251633.61,36218,9.56,73120.8,-12.33,-46.97,-46.83,0,*68
1489251634.85,36219,9.56,73120.3,-12.33,-46.55,-46.61,0,*6B
1489251636.08,36220,9.56,73124.3,-12.33,-46.75,-46.61,0,*63
1489251637.3,36221,9.56,73126.3,-12.33,-46.97,-46.83,0,*62
1489251638.56,36222,9.56,73116.3,-12.33,-46.61,-46.61,0,*64
1489251639.8,36223,9.56,73120.0,-12.33,-46.61,-46.75,0,*60
1489251641.05,36224,9.56,73122.3,-12.35,-46.97,-46.83,0,*61
1489251642.3,36225,9.56,73120.8,-12.35,-46.83,-46.75,0,*6C
1489251643.54,36226,9.56,73118.3,-12.35,-46.75,-46.83,0,*6F
1489251644.79,36227,9.56,73118.8,-12.35,-46.83,-46.83,0,*67
1489251646.04,36228,9.56,73122.5,-12.39,-46.83,-46.69,0,*60
1489251647.28,36229,9.56,73118.3,-12.35,-46.75,-46.83,0,*60
1489251648.57,36230,9.56,73120.5,-12.35,-46.61,-46.61,0,*61
1489251649.84,36231,9.56,73120.5,-12.39,-46.49,-46.41,0,*64
1489251651.13,36232,9.56,73118.3,-12.35,-46.41,-46.27,0,*63
1489251652.37,36233,9.56,73118.8,-12.39,-46.69,-46.83,0,*6A
1489251653.59,36234,9.56,73124.3,-12.39,-46.83,-46.75,0,*60
1489251654.86,36235,9.56,73116.5,-12.41,-46.89,-46.97,0,*68
1489251656.15,36236,9.56,73120.8,-12.41,-46.89,-46.89,0,*64
1489251657.42,36237,9.56,73118.8,-12.39,-46.89,-46.89,0,*6A
1489251658.69,36238,9.56,73120.3,-12.41,-46.97,-46.89,0,*65
1489251659.96,36239,9.56,73118.5,-12.41,-46.97,-46.89,0,*64
1489251661.19,36240,9.56,73120.5,-12.41,-46.55,-46.75,0,*67
1489251662.45,36241,9.56,73120.3,-12.41,-46.69,-46.75,0,*69
1489251663.69,36242,9.56,73120.0,-12.41,-46.75,-46.75,0,*67
1489251664.93,36243,9.56,73120.0,-12.43,-46.75,-46.89,0,*67
1489251666.21,36244,9.56,73120.0,-12.41,-46.69,-46.69,0,*61
1489251667.46,36245,9.56,73118.8,-12.43,-46.55,-46.49,0,*6F
1489251668.73,36246,9.56,73122.0,-12.43,-46.49,-46.49,0,*61
1489251669.97,36247,9.56,73120.3,-12.43,-46.69,-46.55,0,*6F
1489251671.24,36248,9.56,73120.0,-12.43,-46.89,-46.89,0,*6F
1489251672.48,36249,9.56,73122.8,-12.41,-46.97,-47.09,0,*6A
1489251673.7,36250,9.56,73120.3,-12.43,-46.97,-46.97,0,*66
1489251674.94,36251,9.56,73122.3,-12.43,-46.75,-46.89,0,*64
1489251676.21,36252,9.56,73122.5,-12.43,-46.89,-46.89,0,*64
1489251677.51,36253,9.56,73120.8,-12.45,-46.89,-46.89,0,*63
1489251678.78,36254,9.56,73120.3,-12.45,-46.89,-46.97,0,*6B
1489251680.08,36255,9.56,73120.8,-12.45,-46.89,-46.89,0,*65
1489251681.34,36256,9.56,73122.5,-12.45,-46.97,-47.03,0,*6A
1489251682.64,36257,9.56,73120.5,-12.45,-46.89,-46.89,0,*67
1489251683.89,36258,9.56,73122.8,-12.45,-46.83,-46.97,0,*6D
1489251685.13,36259,9.56,73120.8,-12.45,-46.75,-46.75,0,*69
1489251686.4,36260,9.56,73124.5,-12.45,-46.61,-46.75,0,*66
1489251687.66,36261,9.56,73124.5,-12.45,-46.69,-46.75,0,*6F
1489251688.96,36262,9.56,73122.8,-12.49,-46.89,-47.03,0,*6E
1489251690.25,36263,9.56,73120.0,-12.49,-46.89,-47.03,0,*6F
1489251691.52,36264,9.56,73126.8,-12.49,-46.69,-46.83,0,*6F
1489251692.81,36265,9.56,73126.8,-12.49,-47.03,-47.03,0,*6A
1489251694.1,36266,9.56,73126.0,-12.49,-46.89,-47.03,0,*6A
1489251695.38,36267,9.56,73124.5,-12.49,-46.69,-47.03,0,*65
1489251696.65,36268,9.56,73126.8,-12.49,-46.83,-47.03,0,*6E
1489251697.92,36269,9.56,73124.3,-12.49,-46.83,-47.03,0,*6F
1489251699.16,36270,9.56,73124.8,-12.51,-46.83,-47.03,0,*6E
1489251700.4,36271,9.56,73122.8,-12.51,-46.83,-47.03,0,*6F
1489251701.66,36272,9.56,73124.3,-12.51,-47.03,-47.03,0,*65
1489251702.96,36273,9.56,73124.8,-12.49,-46.89,-47.03,0,*6E
1489251704.18,36274,9.56,73126.5,-12.51,-46.83,-47.09,0,*60
1489251705.42,36275,9.56,73122.0,-12.53,-46.97,-47.17,0,*69
1489251706.66,36276,9.56,73124.5,-12.53,-46.75,-47.09,0,*69
1489251707.9,36277,9.56,73126.3,-12.53,-46.75,-47.09,0,*68
1489251709.15,36278,9.56,73124.8,-12.55,-46.89,-47.09,0,*62
1489251710.39,36279,9.56,73122.0,-12.55,-46.89,-47.17,0,*6C
1489251711.64,36280,9.56,73126.0,-12.53,-47.09,-47.17,0,*65
1489251712.86,36281,9.56,73126.3,-12.55,-46.97,-47.09,0,*6B
1489251714.07,36282,9.56,73124.5,-12.55,-47.09,-47.17,0,*61
1489251715.29,36283,9.56,73124.0,-12.55,-47.09,-47.17,0,*60
1489251716.53,36284,9.56,73124.5,-12.57,-47.09,-47.09,0,*6A
1489251717.81,36285,9.56,73122.8,-12.59,-47.03,-47.23,0,*67
1489251719.05,36286,9.56,73124.5,-12.59,-47.03,-47.17,0,*63
1489251720.32,36287,9.56,73124.0,-12.57,-46.89,-47.17,0,*6F
1489251721.57,36288,9.56,73122.5,-12.55,-46.89,-46.97,0,*6B
1489251722.81,36289,9.56,73122.8,-12.59,-46.83,-47.03,0,*60
1489251724.06,36290,9.56,73120.3,-12.59,-46.83,-47.03,0,*68
1489251725.3,36291,9.56,73122.5,-12.57,-47.09,-47.17,0,*61
1489251726.54,36292,9.56,73124.0,-12.59,-47.03,-47.17,0,*66
1489251727.81,36293,9.56,73122.0,-12.63,-47.03,-47.03,0,*6B
1489251729.05,36294,9.56,73124.8,-12.63,-47.03,-47.17,0,*69
1489251730.3,36295,9.56,73122.3,-12.63,-46.97,-47.03,0,*61
1489251731.52,36296,9.56,73124.5,-12.63,-46.97,-47.17,0,*67
1489251732.76,36297,9.56,73120.8,-12.63,-47.03,-47.17,0,*6A
1489251733.98,36298,9.56,73122.0,-12.63,-47.17,-47.17,0,*60
1489251735.22,36299,9.56,73120.8,-12.63,-47.03,-47.17,0,*64
1489251736.47,36300,9.56,73126.3,-12.63,-47.03,-47.17,0,*65
1489251737.74,36301,9.56,73124.0,-12.65,-47.09,-47.23,0,*6F
1489251739.01,36302,9.56,73120.5,-12.65,-47.09,-47.23,0,*6C
1489251740.27,36303,9.56,73124.0,-12.65,-47.03,-47.09,0,*6F
1489251741.52,36304,9.56,73122.5,-12.63,-46.83,-47.03,0,*6D
1489251742.81,36305,9.56,73126.5,-12.65,-46.89,-47.03,0,*60
1489251744.1,36306,9.56,73126.5,-12.65,-47.03,-47.03,0,*60
1489251745.37,36307,9.56,73124.8,-12.65,-46.61,-46.55,0,*66
1489251746.59,36308,9.56,73126.0,-12.67,-46.55,-46.55,0,*6C
1489251747.86,36309,9.56,73120.5,-12.65,-46.55,-46.41,0,*6A
1489251749.11,36310,9.56,73126.3,-12.63,-46.55,-46.49,0,*6C
1489251750.36,36311,9.56,73126.3,-12.65,-46.55,-46.55,0,*66
1489251751.6,36312,9.56,73126.3,-12.67,-46.55,-46.41,0,*62
1489251752.85,36313,9.56,73126.5,-12.67,-46.61,-46.55,0,*61
1489251754.06,36314,9.56,73124.3,-12.67,-46.75,-46.75,0,*61
1489251755.29,36315,9.56,73122.3,-12.67,-46.83,-46.83,0,*60
1489251756.54,36316,9.56,73124.5,-12.67,-46.89,-46.97,0,*6C
1489251757.8,36317,9.56,73126.5,-12.67,-46.89,-46.83,0,*68
1489251759.04,36318,9.56,73122.3,-12.67,-46.75,-46.61,0,*68
1489251760.26,36319,9.56,73122.5,-12.67,-46.55,-46.55,0,*6C
1489251761.48,36320,9.56,73126.8,-12.67,-46.35,-46.35,0,*66
1489251762.7,36321,9.56,73124.3,-12.67,-46.21,-46.21,0,*67
1489251763.93,36322,9.56,73124.0,-12.67,-46.01,-46.01,0,*64
1489251765.17,36323,9.56,73124.0,-12.67,-45.81,-45.95,0,*60
1489251766.41,36324,9.56,73124.3,-12.67,-45.81,-45.95,0,*67
1489251767.68,36325,9.56,73122.8,-12.65,-45.81,-46.01,0,*6A
1489251768.94,36326,9.56,73120.0,-12.65,-45.81,-45.95,0,*67
1489251770.21,36327,9.56,73120.3,-12.65,-46.15,-46.21,0,*64
1489251771.46,36328,9.56,73120.5,-12.65,-46.01,-46.01,0,*6C
1489251772.68,36329,9.56,73122.0,-12.63,-45.41,-45.41,0,*6B
1489251773.96,36330,9.56,73126.3,-12.63,-45.27,-45.27,0,*63
1489251775.19,36331,9.56,73122.3,-12.63,-45.53,-45.53,0,*62
1489251776.41,36332,9.56,73120.3,-12.63,-45.87,-45.87,0,*61
1489251777.66,36333,9.56,73124.8,-12.63,-46.07,-45.95,0,*68
1489251778.88,36334,9.56,73122.8,-12.63,-45.87,-45.95,0,*64
1489251780.14,36335,9.56,73122.3,-12.59,-45.73,-45.73,0,*6F
1489251781.36,36336,9.56,73122.8,-12.59,-45.87,-45.95,0,*6F
1489251782.62,36337,9.56,73126.5,-12.63,-45.73,-45.73,0,*64
1489251783.86,36338,9.56,73122.8,-12.59,-45.87,-45.73,0,*69
1489251785.1,36339,9.56,73120.0,-12.57,-45.87,-45.87,0,*6D
1489251786.37,36340,9.56,73122.3,-12.57,-45.87,-46.07,0,*68
1489251787.64,36341,9.56,73124.0,-12.59,-46.07,-46.15,0,*6F
1489251788.92,36342,9.56,73120.3,-12.57,-46.21,-46.07,0,*65
1489251790.18,36343,9.56,73122.5,-12.57,-46.07,-46.21,0,*64
1489251791.47,36344,9.56,73120.0,-12.59,-46.15,-46.15,0,*69
1489251792.71,36345,9.56,73120.3,-12.57,-45.87,-46.01,0,*6B
1489251793.96,36346,9.56,73118.5,-12.59,-45.95,-46.07,0,*63
1489251795.18,36347,9.56,73116.8,-12.59,-45.87,-45.87,0,*6A
1489251796.47,36348,9.56,73118.8,-12.57,-45.81,-45.81,0,*6B
1489251797.75,36349,9.56,73118.5,-12.57,-45.81,-45.81,0,*6A
1489251798.99,36350,9.56,73118.3,-12.57,-45.61,-45.67,0,*64
1489251800.25,36351,9.56,73116.5,-12.57,-45.41,-45.47,0,*65
1489251801.52,36352,9.56,73118.0,-12.57,-45.61,-45.47,0,*64
1489251802.81,36353,9.56,73114.8,-12.57,-45.47,-45.47,0,*61
1489251804.02,36354,9.56,73118.8,-12.55,-45.33,-45.33,0,*64
1489251805.23,36355,9.56,73114.5,-12.51,-45.41,-45.33,0,*64
1489251806.47,36356,9.56,73118.0,-12.55,-45.47,-45.41,0,*60
1489251807.72,36357,9.56,73114.5,-12.53,-45.21,-45.13,0,*60
1489251808.96,36358,9.56,73118.3,-12.53,-45.33,-45.21,0,*6D
1489251810.21,36359,9.56,73118.0,-12.53,-45.21,-45.33,0,*6C
1489251811.45,36360,9.56,73118.3,-12.53,-45.21,-45.33,0,*66
1489251812.67,36361,9.56,73118.8,-12.51,-45.13,-45.13,0,*66
1489251813.92,36362,9.56,73116.8,-12.51,-45.27,-45.33,0,*60
1489251815.22,36363,9.56,73118.3,-12.49,-45.27,-45.27,0,*6D
1489251816.43,36364,9.56,73118.8,-12.51,-45.33,-45.41,0,*66
1489251817.7,36365,9.56,73118.8,-12.49,-45.53,-45.73,0,*69
1489251818.93,36366,9.56,73116.5,-12.51,-45.53,-45.61,0,*60
1489251820.19,36367,9.56,73122.0,-12.49,-45.81,-45.95,0,*6C
1489251821.47,36368,9.56,73120.5,-12.49,-45.81,-45.81,0,*66
1489251822.72,36369,9.56,73116.0,-12.49,-46.01,-45.95,0,*69
1489251823.96,36370,9.56,73116.3,-12.49,-45.61,-45.61,0,*6F
1489251825.23,36371,9.56,73118.5,-12.49,-45.61,-45.73,0,*6D
1489251826.51,36372,9.56,73122.0,-12.49,-45.81,-45.73,0,*60
1489251827.75,36373,9.56,73116.8,-12.49,-45.41,-45.53,0,*6F
1489251828.99,36374,9.56,73116.8,-12.49,-45.33,-45.33,0,*6B
1489251830.24,36375,9.56,73118.3,-12.49,-45.53,-45.53,0,*6A
1489251831.48,36376,9.56,73118.5,-12.49,-45.61,-45.61,0,*69
1489251832.71,36377,9.56,73118.3,-12.49,-45.33,-45.41,0,*6D
1489251833.97,36378,9.56,73118.5,-12.45,-45.33,-45.27,0,*6E
1489251835.27,36379,9.56,73120.8,-12.45,-45.27,-45.47,0,*6C
1489251836.53,36380,9.56,73120.5,-12.45,-45.41,-45.47,0,*6A
1489251837.81,36381,9.56,73118.8,-12.45,-45.27,-45.41,0,*6D
1489251839.1,36382,9.56,73118.0,-12.45,-45.47,-45.47,0,*6E
1489251840.33,36383,9.56,73120.8,-12.45,-45.41,-45.41,0,*6F
1489251841.62,36384,9.56,73118.3,-12.45,-45.81,-45.81,0,*68
1489251842.86,36385,9.56,73120.3,-12.45,-45.61,-45.67,0,*6F
1489251844.13,36386,9.56,73120.0,-12.45,-45.67,-45.81,0,*62
1489251845.42,36387,9.56,73122.0,-12.45,-45.47,-45.47,0,*6B
1489251846.71,36388,9.56,73118.8,-12.45,-45.27,-45.47,0,*62
1489251848.02,36389,9.56,73120.0,-12.45,-45.27,-45.27,0,*65
1489251849.25,36390,9.56,73118.8,-12.45,-45.67,-45.67,0,*6D
1489251850.49,36391,9.56,73122.5,-12.43,-45.47,-45.67,0,*68
1489251851.75,36392,9.56,73120.3,-12.43,-45.47,-45.81,0,*63
1489251852.98,36393,9.56,73122.0,-12.43,-45.81,-45.67,0,*60
1489251854.22,36394,9.56,73122.0,-12.43,-45.87,-45.81,0,*69
1489251855.46,36395,9.56,73120.5,-12.41,-46.01,-45.87,0,*61
1489251856.67,36396,9.56,73120.3,-12.43,-46.21,-46.21,0,*6D
1489251857.92,36397,9.56,73120.5,-12.43,-46.07,-46.21,0,*68
1489251859.19,36398,9.56,73120.8,-12.43,-46.07,-46.07,0,*63
1489251860.49,36399,9.56,73120.0,-12.45,-46.07,-46.07,0,*64
1489251861.76,36400,9.56,73122.5,-12.43,-46.07,-46.07,0,*65
1489251863.02,36401,9.56,73120.0,-12.41,-45.81,-46.01,0,*6D
1489251864.24,36402,9.56,73122.5,-12.43,-45.87,-46.01,0,*6A
1489251865.46,36403,9.56,73120.0,-12.43,-45.87,-46.01,0,*6B
1489251866.73,36404,9.56,73120.0,-12.43,-46.07,-46.07,0,*61
1489251867.99,36405,9.56,73116.3,-12.41,-46.07,-46.21,0,*66
1489251869.23,36406,9.56,73122.5,-12.43,-46.21,-46.27,0,*65
1489251870.45,36407,9.56,73122.0,-12.43,-46.21,-46.21,0,*62
1489251871.69,36408,9.56,73124.8,-12.45,-46.21,-46.21,0,*6B
1489251872.93,36409,9.56,73120.5,-12.43,-46.27,-46.21,0,*6A
1489251874.18,36410,9.56,73122.5,-12.43,-46.01,-46.07,0,*62
1489251875.45,36411,9.56,73120.0,-12.45,-46.21,-46.07,0,*67
1489251876.7,36412,9.56,73120.0,-12.45,-45.87,-46.01,0,*6D
1489251877.94,36413,9.56,73120.0,-12.45,-46.01,-45.87,0,*6C
1489251879.19,36414,9.56,73120.8,-12.45,-46.01,-45.87,0,*6B
1489251880.4,36415,9.56,73120.3,-12.43,-45.87,-45.87,0,*61
1489251881.69,36416,9.56,73124.3,-12.45,-45.81,-45.81,0,*64
1489251882.95,36417,9.56,73122.8,-12.45,-45.73,-45.87,0,*6E
1489251884.25,36418,9.56,73122.8,-12.45,-46.07,-46.07,0,*6A
1489251885.48,36419,9.56,73126.3,-12.45,-45.87,-45.87,0,*6B
1489251886.7,36420,9.56,73126.8,-12.43,-45.87,-45.87,0,*67
1489251887.94,36421,9.56,73122.0,-12.43,-46.07,-45.87,0,*6D
1489251889.16,36422,9.56,73120.3,-12.43,-46.01,-46.01,0,*65
1489251890.43,36423,9.56,73126.8,-12.43,-46.07,-46.07,0,*64
1489251891.71,36424,9.56,73122.5,-12.41,-45.81,-45.81,0,*61
1489251892.95,36425,9.56,73120.0,-12.43,-45.41,-45.47,0,*64
1489251894.17,36426,9.56,73120.8,-12.43,-45.21,-45.21,0,*61
1489251895.43,36427,9.56,73122.5,-12.43,-45.47,-45.47,0,*60
1489251896.69,36428,9.56,73120.5,-12.43,-45.81,-45.81,0,*6F
1489251897.92,36429,9.56,73120.3,-12.41,-45.87,-45.87,0,*6C
1489251899.18,36430,9.56,73118.5,-12.41,-45.87,-45.81,0,*62
1489251900.46,36431,9.56,73118.8,-12.41,-45.81,-45.81,0,*65
1489251901.7,36432,9.56,73116.8,-12.43,-45.61,-45.47,0,*60
1489251902.95,36433,9.56,73120.0,-12.41,-45.47,-45.67,0,*65
1489251904.23,36434,9.56,73118.0,-12.41,-45.81,-45.81,0,*60
1489251905.47,36435,9.56,73116.0,-12.41,-46.01,-45.87,0,*6C
1489251906.73,36436,9.56,73114.3,-12.41,-45.81,-45.61,0,*6C
1489251907.96,36437,9.56,73118.3,-12.41,-45.61,-45.67,0,*65
1489251909.22,36438,9.56,73114.5,-12.39,-45.81,-45.73,0,*6E
1489251910.48,36439,9.56,73112.3,-12.39,-45.73,-45.73,0,*62
1489251911.73,36440,9.56,73112.5,-12.39,-45.73,-45.73,0,*6C
1489251912.99,36441,9.56,73118.8,-12.39,-45.81,-45.81,0,*6D
1489251914.25,36442,9.56,73112.3,-12.39,-45.81,-45.81,0,*6E
1489251915.48,36443,9.56,73112.8,-12.39,-46.21,-46.01,0,*6D
1489251916.7,36444,9.56,73114.3,-12.39,-46.35,-46.21,0,*6D
1489251917.94,36445,9.56,73114.0,-12.39,-46.41,-46.35,0,*6A
1489251919.17,36446,9.56,73114.3,-12.39,-46.41,-46.21,0,*6C
1489251920.46,36447,9.56,73114.0,-12.41,-46.41,-46.27,0,*64
1489251921.68,36448,9.56,73114.8,-12.39,-46.35,-46.35,0,*64
1489251922.9,36449,9.56,73114.8,-12.39,-46.01,-45.95,0,*6B
1489251924.14,36450,9.56,73110.5,-12.39,-46.21,-46.15,0,*6A
1489251925.44,36451,9.56,73112.0,-12.41,-46.49,-46.49,0,*63
1489251926.7,36452,9.56,73112.8,-12.43,-46.41,-46.27,0,*62
1489251927.96,36453,9.56,73110.0,-12.41,-46.21,-46.27,0,*67
1489251929.23,36454,9.56,73110.0,-12.41,-46.27,-46.21,0,*60
1489251930.47,36455,9.56,73112.3,-12.41,-46.01,-45.87,0,*6A
1489251931.74,36456,9.56,73112.5,-12.41,-46.07,-46.01,0,*62
1489251932.97,36457,9.56,73112.3,-12.41,-46.21,-46.21,0,*65
1489251934.21,36458,9.56,73112.8,-12.41,-46.01,-45.87,0,*67
1489251935.45,36459,9.56,73110.0,-12.43,-45.81,-45.87,0,*6F
1489251936.7,36460,9.56,73112.0,-12.41,-46.41,-46.21,0,*67
1489251937.93,36461,9.56,73114.0,-12.41,-45.87,-45.87,0,*60
1489251939.19,36462,9.56,73114.3,-12.41,-45.87,-45.81,0,*65
1489251940.43,36463,9.56,73114.5,-12.41,-46.01,-45.87,0,*6F
1489251941.7,36464,9.56,73114.0,-12.41,-46.07,-46.01,0,*63
1489251942.98,36465,9.56,73114.0,-12.41,-46.41,-46.27,0,*64
1489251944.23,36466,9.56,73114.5,-12.39,-46.21,-46.07,0,*6C
1489251945.46,36467,9.56,73110.8,-12.41,-45.87,-45.87,0,*66
1489251946.68,36468,9.56,73114.3,-12.39,-46.01,-45.95,0,*68
1489251947.95,36469,9.56,73118.3,-12.35,-46.15,-45.95,0,*60
1489251949.22,36470,9.56,73118.0,-12.39,-46.15,-46.15,0,*6F
1489251950.44,36471,9.56,73116.3,-12.39,-46.01,-45.95,0,*60
1489251951.7,36472,9.56,73112.8,-12.39,-45.81,-45.73,0,*60
1489251952.96,36473,9.56,73114.8,-12.39,-45.81,-45.81,0,*6C
1489251954.26,36474,9.56,73112.0,-12.35,-46.15,-46.07,0,*64
1489251955.5,36475,9.56,73112.3,-12.35,-45.95,-45.87,0,*65
1489251956.74,36476,9.56,73112.0,-12.35,-45.95,-45.87,0,*66
1489251957.96,36477,9.56,73118.3,-12.39,-46.35,-46.35,0,*68
1489251959.24,36478,9.56,73118.3,-12.39,-46.15,-46.15,0,*67
1489251960.46,36479,9.56,73118.3,-12.39,-46.21,-46.01,0,*64
1489251961.68,36480,9.56,73116.0,-12.39,-46.01,-45.95,0,*6E
1489251962.9,36481,9.56,73116.3,-12.39,-46.01,-46.01,0,*61
1489251964.15,36482,9.56,73116.3,-12.39,-46.01,-46.15,0,*67
1489251965.37,36483,9.56,73118.3,-12.39,-46.21,-46.01,0,*61
1489251966.62,36484,9.56,73118.5,-12.39,-46.21,-46.15,0,*63
1489251967.92,36485,9.56,73116.3,-12.35,-46.15,-46.07,0,*6A
1489251969.19,36486,9.56,73116.3,-12.35,-46.07,-45.95,0,*62
1489251970.43,36487,9.56,73118.3,-12.39,-46.01,-46.15,0,*62
1489251971.66,36488,9.56,73116.0,-12.39,-46.21,-46.01,0,*6A
1489251972.88,36489,9.56,73114.3,-12.39,-46.35,-46.35,0,*69
1489251974.1,36490,9.56,73116.0,-12.39,-46.35,-46.21,0,*64
1489251975.4,36491,9.56,73116.5,-12.35,-46.15,-46.07,0,*6F
1489251976.67,36492,9.56,73118.8,-12.35,-46.35,-46.27,0,*6C
1489251977.91,36493,9.56,73118.8,-12.39,-46.41,-46.35,0,*61
1489251979.18,36494,9.56,73116.3,-12.39,-46.49,-46.41,0,*6D
1489251980.47,36495,9.56,73116.3,-12.35,-46.41,-46.41,0,*68
1489251981.74,36496,9.56,73116.8,-12.39,-46.49,-46.49,0,*67
1489251983.01,36497,9.56,73118.8,-12.35,-46.27,-46.35,0,*69
1489251984.23,36498,9.56,73118.8,-12.39,-46.35,-46.21,0,*6C
1489251985.47,36499,9.56,73118.5,-12.39,-46.41,-46.35,0,*6B
1489251986.74,36500,9.56,73116.5,-12.39,-46.49,-46.69,0,*6B
1489251988.0,36501,9.56,73118.3,-12.39,-46.61,-46.61,0,*68
1489251989.24,36502,9.56,73120.8,-12.41,-46.55,-46.75,0,*66
1489251990.5,36503,9.56,73120.3,-12.41,-46.55,-46.69,0,*6A
1489251991.73,36504,9.56,73122.0,-12.41,-46.55,-46.55,0,*62
1489251993.02,36505,9.56,73118.8,-12.41,-46.41,-46.27,0,*63
1489251994.31,36506,9.56,73120.5,-12.41,-46.41,-46.49,0,*68
1489251995.54,36507,9.56,73116.3,-12.41,-46.55,-46.75,0,*63
1489251996.76,36508,9.56,73122.5,-12.43,-46.55,-46.55,0,*6C
1489251998.05,36509,9.56,73118.0,-12.41,-46.27,-46.41,0,*6F
1489251999.32,36510,9.56,73122.0,-12.43,-46.49,-46.49,0,*65
1489252000.6,36511,9.56,73120.0,-12.41,-46.41,-46.41,0,*66
1489252001.89,36512,9.56,73118.0,-12.41,-46.41,-46.41,0,*65
1489252003.12,36513,9.56,73122.0,-12.41,-46.21,-46.21,0,*64
1489252004.35,36514,9.56,73120.3,-12.39,-46.01,-46.01,0,*6C
1489252005.59,36515,9.5,73118.0,-12.41,-46.01,-45.87,0,*6F
1489252006.88,36516,9.5,73116.0,-12.41,-46.07,-46.07,0,*61
1489252008.09,36517,9.56,73120.5,-12.39,-46.21,-46.35,0,*6A
1489252009.39,36518,9.56,73118.3,-12.41,-46.49,-46.27,0,*67
1489252010.65,36519,9.56,73116.0,-12.43,-46.41,-46.27,0,*6C
1489252011.89,36520,9.56,73116.0,-12.41,-46.01,-46.21,0,*66
1489252013.18,36521,9.56,73120.0,-12.41,-46.49,-46.27,0,*6D
1489252014.47,36522,9.56,73118.0,-12.41,-46.49,-46.41,0,*6E
1489252015.76,36523,9.56,73118.0,-12.41,-46.27,-46.27,0,*67
1489252017.02,36524,9.5,73118.8,-12.43,-46.41,-46.41,0,*62
1489252018.31,36525,9.56,73116.5,-12.41,-46.41,-46.27,0,*61
1489252019.57,36526,9.56,73120.0,-12.41,-46.21,-46.27,0,*64
1489252020.81,36527,9.56,73116.5,-12.41,-46.21,-46.21,0,*63
1489252022.06,36528,9.56,73122.3,-12.39,-46.15,-46.01,0,*66
1489252023.33,36529,9.56,73120.8,-12.41,-46.07,-46.01,0,*6B
1489252024.56,36530,9.56,73122.0,-12.41,-46.21,-46.21,0,*65
1489252025.78,36531,9.56,73120.8,-12.43,-46.21,-46.21,0,*66
1489252027.02,36532,9.56,73120.3,-12.41,-46.21,-46.21,0,*67
1489252028.26,36533,9.56,73120.3,-12.41,-46.21,-46.01,0,*64
1489252029.53,36534,9.56,73122.3,-12.41,-46.27,-46.21,0,*67
1489252030.79,36535,9.5,73118.3,-12.41,-46.21,-46.07,0,*64
1489252032.08,36536,9.56,73120.8,-12.41,-46.27,-46.07,0,*61
1489252033.35,36537,9.56,73122.3,-12.41,-46.27,-46.21,0,*64
1489252034.62,36538,9.56,73122.0,-12.39,-46.15,-45.81,0,*6C
1489252035.87,36539,9.56,73120.8,-12.39,-46.15,-45.95,0,*68
1489252037.11,36540,9.56,73122.3,-12.41,-46.21,-46.01,0,*60
1489252038.35,36541,9.56,73122.5,-12.41,-46.21,-46.01,0,*61
1489252039.59,36542,9.56,73122.5,-12.41,-46.01,-45.87,0,*6D
1489252040.83,36543,9.56,73122.5,-12.41,-46.01,-45.87,0,*6C
1489252042.09,36544,9.56,73122.8,-12.41,-46.07,-45.87,0,*6D
1489252043.33,36545,9.56,73124.8,-12.39,-46.01,-45.81,0,*63
1489252044.56,36546,9.56,73122.8,-12.39,-46.21,-46.01,0,*69
1489252045.8,36547,9.5,73120.0,-12.39,-46.41,-46.21,0,*6C
1489252047.04,36548,9.56,73124.5,-12.39,-46.15,-45.95,0,*6E
1489252048.28,36549,9.5,73122.5,-12.39,-45.95,-45.73,0,*6C
1489252049.49,36550,9.56,73128.0,-12.39,-45.53,-45.41,0,*6F
1489252050.71,36551,9.56,73124.5,-12.39,-45.41,-45.33,0,*68
1489252051.96,36552,9.56,73124.8,-12.35,-45.33,-45.27,0,*67
1489252053.26,36553,9.56,73124.3,-12.35,-45.27,-45.27,0,*63
1489252054.5,36554,9.56,73126.0,-12.39,-45.33,-45.27,0,*6D
1489252055.73,36555,9.56,73126.3,-12.35,-45.33,-45.33,0,*65
1489252056.99,36556,9.5,73124.0,-12.35,-45.47,-45.33,0,*65
1489252058.28,36557,9.56,73122.5,-12.35,-45.47,-45.47,0,*67
1489252059.52,36558,9.56,73120.5,-12.33,-45.47,-45.33,0,*6D
1489252060.72,36559,9.56,73124.5,-12.33,-45.33,-45.13,0,*6D
1489252061.95,36560,9.56,73122.5,-12.33,-45.47,-45.33,0,*66
1489252063.24,36561,9.5,73120.3,-12.31,-45.47,-45.47,0,*66
1489252064.48,36562,9.56,73122.8,-12.33,-45.53,-45.47,0,*62
1489252065.76,36563,9.56,73122.3,-12.31,-45.27,-45.13,0,*63
1489252066.98,36564,9.56,73120.0,-12.29,-46.01,-46.01,0,*6A
1489252068.23,36565,9.56,73120.5,-12.29,-46.07,-45.87,0,*60
1489252069.47,36566,9.56,73120.3,-12.29,-46.07,-45.87,0,*63
1489252070.7,36567,9.56,73120.5,-12.33,-45.73,-45.67,0,*67
1489252071.93,36568,9.5,73118.8,-12.29,-45.81,-45.87,0,*60
1489252073.21,36569,9.56,73122.8,-12.31,-46.35,-46.15,0,*6C
1489252074.47,36570,9.56,73122.5,-12.31,-45.73,-45.87,0,*6D
1489252075.68,36571,9.5,73120.3,-12.29,-45.41,-45.41,0,*6E
1489252076.9,36572,9.56,73120.8,-12.29,-45.87,-45.87,0,*6D
1489252078.2,36573,9.5,73116.5,-12.31,-46.15,-46.07,0,*66
1489252079.47,36574,9.56,73122.0,-12.31,-46.15,-45.95,0,*69
1489252080.74,36575,9.56,73120.5,-12.31,-46.07,-45.95,0,*6B
1489252082.02,36576,9.56,73122.3,-12.31,-46.35,-46.15,0,*62
1489252083.29,36577,9.56,73120.5,-12.31,-46.27,-45.87,0,*68
1489252084.56,36578,9.56,73122.8,-12.31,-45.67,-45.73,0,*6B
1489252085.77,36579,9.5,73118.8,-12.29,-45.67,-45.67,0,*66
1489252087.05,36580,9.5,73118.5,-12.31,-45.73,-45.73,0,*69
1489252088.31,36581,9.5,73116.3,-12.31,-45.73,-45.67,0,*6D
1489252089.55,36582,9.56,73118.8,-12.31,-45.67,-45.67,0,*6B
1489252090.79,36583,9.56,73120.8,-12.29,-45.41,-45.47,0,*65
1489252092.02,36584,9.56,73122.0,-12.29,-45.81,-45.61,0,*6A
1489252093.29,36585,9.56,73120.3,-12.27,-45.87,-45.81,0,*6D
1489252094.5,36586,9.56,73122.8,-12.29,-45.67,-45.61,0,*60
1489252095.74,36587,9.56,73120.3,-12.27,-45.41,-45.41,0,*69
1489252097.0,36588,9.5,73118.3,-12.27,-45.41,-45.27,0,*66
1489252098.26,36589,9.56,73120.0,-12.29,-45.47,-45.47,0,*69
1489252099.47,36590,9.5,73116.5,-12.29,-45.87,-45.67,0,*6F
1489252100.73,36591,9.5,73118.8,-12.27,-45.81,-45.67,0,*66
1489252101.97,36592,9.56,73120.5,-12.27,-45.67,-45.61,0,*6B